Snowfall_Accumulation
0.0 0.0 0.0 0.0 0.0 0.0 0.0 0.0 0.0 0.0 0.0 0.0 0.0 0.0 0.0 0.0 0.0 0.0 0.0 0.0 0.0 0.0 0.0 0.0 0.0 0.0 0.0 0.0 0.0 0.0 0.0 0.0 0.0 0.0 0.0 0.0 0.0 0.0 0.0 0.0 0.0 0.0 0.0 0.0 0.0 0.0 0.0 0.0 0.0
0.0 0.0 0.0 0.0 0.0 0.3 0.0 0.0 0.0 0.0 0.0 0.0 0.0 0.0 0.0 0.0 0.0 0.0 0.0 0.0 0.0 0.0 0.0 0.0 0.0 0.0 0.0 0.0 0.0 0.0 0.0 0.0 0.0 0.0 0.0 0.0 0.0 0.0 0.0 0.0 0.0 0.0 0.0 0.0 0.0 0.0 0.0 0.0 0.0
0.0 0.0 0.0 0.0 0.1 0.4 0.0 0.0 0.0 0.0 0.0 0.0 0.0 0.0 0.0 0.0 0.0 0.0 0.0 0.0 0.0 0.0 0.0 0.0 0.0 0.0 0.0 0.0 0.0 0.0 0.0 0.0 0.0 0.0 0.0 0.0 0.0 0.0 0.0 0.0 0.0 0.0 0.0 0.0 0.0 0.0 0.0 0.0 0.0
0.0 0.0 0.0 0.0 0.2 0.0 0.0 0.0 0.0 0.0 0.0 0.0 0.0 0.0 0.0 0.0 0.0 0.0 0.0 0.0 0.0 0.0 0.0 0.0 0.0 0.0 0.0 0.0 0.0 0.0 0.0 0.0 0.0 0.0 0.0 0.0 0.0 0.0 0.0 0.0 0.0 0.0 0.0 0.0 0.0 0.0 0.0 0.0 0.0
0.0 0.0 0.0 0.1 0.1 0.0 0.0 0.0 0.0 0.0 0.0 0.0 0.0 0.0 0.0 0.0 0.0 0.0 0.0 0.0 0.0 0.0 0.0 0.0 0.0 0.0 0.0 0.0 0.0 0.0 0.0 0.0 0.0 0.0 0.0 0.0 0.0 0.0 0.0 0.0 0.0 0.0 0.0 0.0 0.0 0.0 0.0 0.0 0.0
0.0 0.0 0.3 0.8 0.1 0.0 0.0 0.0 0.0 0.0 0.0 0.0 0.0 0.0 0.0 0.0 0.0 0.0 0.0 0.0 0.0 0.0 0.0 0.0 0.0 0.0 0.0 0.0 0.0 0.0 0.0 0.0 0.0 0.0 0.0 0.0 0.0 0.0 0.0 0.0 0.0 0.0 0.0 0.0 0.0 0.0 0.0 0.0 0.0
0.0 0.1 0.4 0.4 0.2 0.0 0.0 0.0 0.0 0.0 0.0 0.0 0.0 0.0 0.0 0.0 0.0 0.0 0.0 0.0 0.0 0.0 0.0 0.0 0.0 0.0 0.0 0.0 0.0 0.0 0.0 0.0 0.0 0.0 0.0 0.0 0.0 0.0 0.0 0.0 0.0 0.0 0.0 0.0 0.0 0.0 0.0 0.0 0.0
0.0 0.2 0.4 0.2 0.2 0.1 0.0 0.0 0.0 0.0 0.0 0.0 0.0 0.0 0.0 0.0 0.0 0.0 0.0 0.0 0.0 0.0 0.0 0.0 0.0 0.0 0.0 0.0 0.0 0.0 0.0 0.0 0.0 0.0 0.0 0.0 0.0 0.0 0.0 0.0 0.0 0.0 0.0 0.0 0.0 0.0 0.0 0.0 0.0
0.0 0.3 1.1 0.4 0.2 0.1 0.0 0.1 0.0 0.0 0.0 0.0 0.0 0.0 0.0 0.0 0.0 0.0 0.0 0.0 0.0 0.0 0.0 0.0 0.0 0.0 0.0 0.0 0.0 0.0 0.0 0.0 0.0 0.0 0.0 0.0 0.0 0.0 0.0 0.0 0.0 0.0 0.0 0.0 0.0 0.0 0.0 0.0 0.0
0.2 1.0 0.4 0.1 0.1 0.1 0.1 0.1 0.1 0.0 0.0 0.0 0.0 0.0 0.0 0.0 0.0 0.0 0.0 0.0 0.0 0.0 0.0 0.0 0.0 0.0 0.0 0.0 0.0 0.0 0.0 0.0 0.0 0.0 0.0 0.0 0.0 0.0 0.0 0.0 0.0 0.0 0.0 0.0 0.0 0.0 0.0 0.0 0.0
0.2 0.4 0.2 0.1 0.1 0.1 0.1 0.1 0.1 0.1 0.1 0.1 0.1 0.0 0.0 0.0 0.0 0.0 0.0 0.0 0.0 0.0 0.0 0.0 0.0 0.0 0.0 0.0 0.0 0.0 0.0 0.0 0.0 0.0 0.0 0.0 0.0 0.0 0.0 0.0 0.0 0.0 0.0 0.0 0.0 0.0 0.0 0.0 0.0
0.3 0.2 0.1 0.3 0.1 0.1 0.2 0.2 0.1 0.2 0.4 0.2 0.1 0.0 0.0 0.0 0.0 0.0 0.0 0.0 0.0 0.0 0.0 0.0 0.0 0.0 0.0 0.0 0.0 0.0 0.0 0.0 0.0 0.0 0.0 0.0 0.0 0.0 0.0 0.0 0.0 0.0 0.0 0.0 0.0 0.0 0.0 0.0 0.0
0.3 0.2 0.2 0.2 0.1 0.2 0.2 0.3 0.2 0.3 0.3 0.2 0.1 0.0 0.0 0.0 0.0 0.0 0.0 0.0 0.0 0.0 0.0 0.0 0.0 0.0 0.0 0.0 0.0 0.0 0.0 0.0 0.0 0.0 0.0 0.0 0.0 0.0 0.0 0.0 0.0 0.0 0.0 0.0 0.0 0.0 0.0 0.0 0.0
0.1 0.1 0.1 0.1 0.1 0.1 0.2 0.5 0.4 0.5 0.2 0.1 0.1 0.1 0.1 0.0 0.0 0.0 0.0 0.0 0.1 0.0 0.0 0.1 0.0 0.0 0.0 0.0 0.0 0.0 0.0 0.0 0.0 0.0 0.0 0.0 0.0 0.0 0.0 0.0 0.0 0.0 0.0 0.0 0.0 0.0 0.0 0.0 0.0
0.1 0.1 0.1 0.0 0.0 0.0 0.1 0.4 0.6 0.5 0.2 0.1 0.2 0.1 0.1 0.1 0.1 0.0 0.1 0.1 0.1 0.1 0.1 0.1 0.1 0.1 0.1 0.0 0.1 0.1 0.1 0.0 0.0 0.0 0.0 0.0 0.0 0.0 0.0 0.0 0.0 0.0 0.0 0.0 0.0 0.0 0.0 0.0 0.0
0.4 0.8 1.2 0.1 0.0 0.0 0.5 1.4 0.5 0.3 0.2 0.2 0.2 0.2 0.2 0.2 0.1 0.1 0.1 0.1 0.1 0.1 0.0 0.1 0.1 0.1 0.1 0.1 0.1 0.1 0.1 0.1 0.1 0.1 0.1 0.1 0.1 0.1 0.1 0.0 0.0 0.0 0.0 0.0 0.0 0.0 0.0 0.0 0.0
4.1 5.4 3.4 1.0 0.1 0.2 0.6 1.0 0.5 0.3 0.3 0.3 0.3 0.2 0.3 0.2 0.2 0.2 0.2 0.2 0.1 0.1 0.1 0.1 0.1 0.1 0.2 0.1 0.1 0.1 0.1 0.2 0.1 0.1 0.1 0.1 0.1 0.1 0.1 0.1 0.0 0.0 0.0 0.0 0.0 0.0 0.0 0.0 0.0
5.2 3.9 2.3 1.7 0.5 0.5 1.0 0.9 0.5 0.3 0.3 0.5 0.5 0.4 0.3 0.3 0.3 0.3 0.2 0.2 0.2 0.2 0.1 0.1 0.1 0.1 0.3 0.2 0.2 0.1 0.1 0.1 0.2 0.2 0.1 0.1 0.1 0.1 0.1 0.1 0.0 0.1 0.0 0.0 0.0 0.1 0.0 0.0 0.0
3.0 3.0 2.6 1.1 0.6 1.0 1.2 1.2 0.7 0.4 0.3 0.4 0.4 0.6 0.6 0.4 0.3 0.2 0.2 0.2 0.2 0.2 0.2 0.2 0.2 0.1 0.2 0.3 0.1 0.2 0.2 0.1 0.2 0.2 0.2 0.2 0.2 0.1 0.2 0.2 0.1 0.1 0.1 0.0 0.1 0.1 0.1 0.0 0.0
3.5 4.0 3.0 1.5 0.7 1.7 1.8 1.7 0.7 0.5 0.6 0.6 0.4 0.4 0.5 0.4 0.3 0.2 0.1 0.2 0.2 0.2 0.2 0.2 0.2 0.2 0.2 0.2 0.3 0.2 0.3 0.3 0.3 0.3 0.2 0.3 0.4 0.2 0.2 0.3 0.2 0.2 0.2 0.1 0.2 0.1 0.2 0.1 0.0
4.0 3.5 3.2 3.5 2.1 1.5 3.0 3.1 1.9 1.0 0.7 0.6 0.5 0.5 0.4 0.4 0.5 0.3 0.2 0.2 0.2 0.3 0.3 0.3 0.4 0.4 0.3 0.2 0.2 0.3 0.4 0.3 0.3 0.4 0.5 0.3 0.4 0.5 0.4 0.2 0.3 0.3 0.3 0.3 0.3 0.4 0.6 0.4 0.1
5.1 1.5 1.9 3.3 5.6 7.6 5.8 11.5 3.9 1.9 1.2 1.1 0.8 0.8 0.6 0.5 0.6 0.4 0.2 0.2 0.2 0.2 0.3 0.4 0.4 0.5 0.4 0.3 0.3 0.4 0.5 0.5 0.4 0.5 0.5 0.5 0.6 0.6 0.6 0.5 0.3 0.3 0.3 0.3 0.4 0.4 0.6 0.4 0.6
3.2 0.8 1.8 3.2 7.0 10.0 5.4 10.6 6.5 2.7 2.2 2.2 1.5 1.2 0.9 0.7 0.7 0.7 0.5 0.3 0.2 0.2 0.2 0.3 0.3 0.4 0.5 0.4 0.4 0.5 0.6 0.6 0.6 0.6 0.5 0.4 0.5 0.7 0.8 0.7 0.4 0.3 0.4 0.4 0.4 0.6 0.8 0.7 0.5
1.4 1.7 2.2 3.6 9.5 16.2 6.9 9.3 8.4 5.8 4.5 2.6 1.7 1.4 1.0 1.1 0.7 0.6 0.5 0.4 0.2 0.2 0.2 0.2 0.3 0.3 0.4 0.3 0.4 0.4 0.6 0.6 0.6 0.6 0.7 0.4 0.5 0.5 0.6 0.9 0.7 0.4 0.4 0.4 0.5 0.6 0.7 0.9 0.4
3.5 11.7 22.3 22.2 21.1 12.4 5.2 7.6 9.4 4.3 2.9 2.6 2.3 1.9 1.5 1.5 1.1 0.9 0.7 0.6 0.5 0.3 0.3 0.3 0.3 0.3 0.4 0.4 0.3 0.3 0.4 0.5 0.6 0.7 0.9 0.9 0.6 0.6 0.6 0.7 1.0 0.8 0.5 0.5 0.6 0.7 0.8 0.9 1.0
4.3 8.6 17.5 16.6 11.4 7.3 6.0 8.0 8.5 3.6 2.9 2.4 2.1 2.0 1.6 1.5 1.6 1.3 1.0 0.8 0.6 0.6 0.5 0.5 0.3 0.3 0.3 0.3 0.4 0.3 0.3 0.4 0.5 0.6 0.9 1.1 0.8 0.8 0.5 0.6 0.6 0.8 0.6 0.5 0.5 0.7 0.7 0.9 0.9
6.2 8.2 6.9 13.5 9.9 8.5 8.1 7.3 5.3 2.3 2.2 2.3 2.0 1.7 1.5 1.8 1.6 1.6 1.4 1.2 0.9 0.9 0.8 0.7 0.7 0.4 0.4 0.4 0.4 0.4 0.4 0.3 0.4 0.4 0.7 1.0 1.1 0.8 0.7 0.7 0.7 0.7 0.9 0.6 0.6 0.9 0.8 0.8 1.0
3.2 5.5 11.2 18.3 16.1 11.4 7.6 6.9 8.5 5.3 4.0 2.9 2.5 2.1 1.7 1.6 1.7 1.6 1.6 1.5 1.1 1.2 1.2 0.9 0.9 0.7 0.7 0.6 0.7 0.5 0.6 0.3 0.3 0.3 0.4 0.9 0.6 0.7 0.7 0.7 0.8 0.8 0.8 0.6 0.7 0.6 0.7 0.9 1.1
5.4 8.6 12.1 14.5 13.0 12.8 9.6 9.4 7.8 5.9 4.1 3.4 2.8 2.5 2.3 2.0 2.1 2.1 1.8 1.8 1.7 1.5 1.6 1.5 1.1 0.8 0.8 0.8 0.9 0.8 0.8 0.4 0.3 0.3 0.3 0.5 0.5 0.5 0.6 0.7 0.8 0.9 0.8 0.5 0.6 0.6 0.7 0.7 0.9
3.6 7.1 10.4 16.6 12.5 9.9 10.4 10.0 5.1 4.1 3.7 3.6 3.2 3.0 2.8 2.6 2.4 2.4 2.2 1.8 1.7 1.7 1.7 1.7 1.6 1.2 1.1 0.9 0.8 0.8 0.9 1.0 0.5 0.4 0.3 0.4 0.4 0.4 0.6 0.6 0.7 0.8 0.8 0.8 0.7 0.8 0.7 0.8 0.9